period_start,C,m1,H,J0,J1,J2,J3,J4,J5,JA,JB,JC,JD,JJ,JK,JN,#
2016-02-15 00:03:58,0.20,10.52,0.00,14.13,18.05,22.10,15.19,49.15,1022.00,2064.05,1238.08,1455.25,1655.13,599.68,617.33,51.73,0000 0000 0000 0000 000000
2016-02-15 00:08:59,0.17,10.52,0.00,14.13,18.04,22.09,15.13,49.63,1022.01,2064.10,1237.07,1454.70,1654.52,600.08,617.99,51.78,0000 0000 0000 0000 000000
2016-02-15 00:14:00,0.18,10.53,0.00,14.11,18.02,22.04,15.13,49.44,1022.06,2064.21,1236.00,1454.02,1653.90,600.00,617.82,51.83,0000 0000 0000 0000 000000
2016-02-15 00:19:02,0.20,10.54,0.00,14.11,18.00,22.03,15.10,49.37,1022.29,2064.34,1234.96,1453.25,1653.06,599.96,618.02,51.88,0000 0000 0000 0000 000000
2016-02-15 00:24:03,0.25,10.55,0.00,14.09,17.99,22.03,15.11,49.39,1022.22,2064.58,1233.84,1452.61,1652.26,600.08,617.90,51.93,0000 0000 0000 0000 000000
2016-02-15 00:29:04,0.23,10.57,0.00,14.09,17.98,21.97,15.13,49.52,1022.18,2064.89,1232.71,1451.95,1651.47,599.74,617.78,51.98,0000 0000 0000 0000 000000
2016-02-15 00:34:06,0.18,10.58,0.00,14.09,17.97,22.02,15.18,49.79,1022.32,2064.94,1231.57,1451.10,1650.82,600.06,618.13,52.03,0000 0000 0000 0000 000000
2016-02-15 00:39:07,0.20,10.59,0.00,14.07,17.96,21.98,15.15,49.92,1022.45,2064.97,1230.50,1450.48,1650.04,599.87,617.88,52.08,0000 0000 0000 0000 000000
2016-02-15 00:44:09,0.11,10.59,0.00,14.07,17.94,21.99,15.15,49.68,1022.47,2064.99,1229.77,1449.88,1649.29,599.86,617.94,52.13,0000 0000 0000 0000 000000
2016-02-15 00:49:10,0.24,10.61,0.00,14.03,17.94,21.97,15.22,49.90,1022.47,2064.98,1228.51,1449.06,1648.41,600.11,618.34,52.18,0000 0000 0000 0000 000000
2016-02-15 00:54:11,0.18,10.61,0.00,14.02,17.94,21.96,15.17,49.90,1022.45,2064.99,1227.58,1448.38,1647.73,600.21,618.42,52.23,0000 0000 0000 0000 000000
2016-02-15 00:59:13,0.23,10.63,0.00,14.02,17.94,21.99,15.17,49.95,1022.37,2064.99,1226.25,1447.49,1646.65,600.05,617.92,52.29,0000 0000 0000 0000 000000
2016-02-15 01:04:14,0.24,10.64,0.00,14.00,17.94,21.94,15.15,49.85,1022.31,2064.99,1224.94,1446.56,1645.50,600.00,617.98,52.34,0000 0000 0000 0000 000000
2016-02-15 01:09:15,0.29,10.65,0.00,14.00,17.94,22.01,15.18,49.71,1022.29,2064.99,1223.37,1445.43,1644.32,600.23,618.29,52.39,0000 0000 0000 0000 000000
2016-02-15 01:14:16,0.29,10.67,0.00,14.02,17.95,21.98,15.20,49.92,1022.12,2064.99,1221.74,1444.38,1643.06,600.60,618.59,52.44,0000 0000 0000 0000 000000
2016-02-15 01:19:18,0.26,10.68,0.00,14.03,17.97,22.04,15.16,50.04,1022.10,2064.98,1220.16,1443.22,1641.87,600.17,618.09,52.49,0000 0000 0000 0000 000000
2016-02-15 01:24:19,0.20,10.69,0.00,14.06,17.98,21.99,15.15,49.83,1022.31,2064.98,1219.23,1442.36,1640.83,599.87,617.94,52.54,0000 0000 0000 0000 000000
2016-02-15 01:29:21,0.27,10.70,0.00,14.08,18.01,22.03,15.18,50.13,1022.46,2064.96,1217.75,1441.39,1639.80,600.27,618.35,52.59,0000 0000 0000 0000 000000
2016-02-15 01:34:22,0.19,10.72,0.00,14.07,18.02,21.97,15.18,50.17,1022.47,2064.78,1216.48,1440.51,1638.78,600.02,618.20,52.64,0000 0000 0000 0000 000000
2016-02-15 01:39:24,0.26,10.73,0.00,14.07,18.03,21.98,15.20,50.45,1022.48,2064.44,1214.83,1439.39,1637.62,599.87,618.01,52.69,0000 0000 0000 0000 000000
2016-02-15 01:44:25,0.25,10.74,0.00,14.07,18.04,22.01,15.11,50.33,1022.48,2064.58,1213.62,1438.46,1636.64,599.82,617.99,52.74,0000 0000 0000 0000 000000
2016-02-15 01:49:26,0.28,10.75,0.00,14.07,18.05,22.05,15.13,50.38,1022.48,2064.66,1212.32,1437.34,1635.34,599.54,617.78,52.79,0000 0000 0000 0000 000000
2016-02-15 01:54:27,0.41,10.77,0.00,14.07,18.07,22.07,15.16,50.32,1022.47,2064.39,1210.02,1435.63,1633.44,600.06,618.01,52.84,0000 0000 0000 0000 000000
2016-02-15 01:59:29,0.34,10.79,0.00,14.06,18.08,22.10,15.14,50.30,1022.47,2064.11,1207.95,1434.05,1631.74,599.92,618.08,52.89,0000 0000 0000 0000 000000
2016-02-15 02:04:30,0.47,10.81,0.00,14.06,18.09,22.11,15.17,50.33,1022.48,2064.07,1205.59,1432.34,1629.81,600.13,618.28,52.94,0000 0000 0000 0000 000000
2016-02-15 02:09:31,0.47,10.84,0.00,14.09,18.11,22.10,15.18,50.23,1022.46,2064.05,1203.06,1430.44,1627.73,599.98,618.09,52.99,0000 0000 0000 0000 000000
2016-02-15 02:14:32,0.50,10.86,0.00,14.11,18.12,22.10,15.18,49.99,1022.41,2064.03,1200.51,1428.53,1625.57,599.71,617.76,53.04,0000 0000 0000 0000 000000
2016-02-15 02:19:34,0.49,10.89,0.00,14.13,18.14,22.13,15.16,49.99,1022.32,2064.01,1197.94,1426.54,1623.42,599.93,617.69,53.09,0000 0000 0000 0000 000000
2016-02-15 02:24:35,0.55,10.92,0.00,14.12,18.15,22.16,15.24,49.98,1022.38,2064.00,1195.33,1424.41,1621.04,600.48,618.47,53.14,0000 0000 0000 0000 000000
2016-02-15 02:29:36,0.62,10.94,0.00,14.14,18.17,22.18,15.12,49.83,1022.43,2064.00,1192.28,1422.01,1618.30,599.93,617.85,53.20,0000 0000 0000 0000 000000
2016-02-15 02:34:38,0.59,10.98,0.00,14.16,18.19,22.19,15.22,49.71,1022.41,2064.00,1189.22,1419.57,1615.64,600.07,618.01,53.25,0000 0000 0000 0000 000000
2016-02-15 02:39:39,0.58,11.01,0.00,14.17,18.19,22.21,15.10,49.70,1022.46,2063.99,1186.33,1417.31,1613.20,599.64,617.61,53.30,0000 0000 0000 0000 000000
2016-02-15 02:44:40,0.60,11.03,0.00,14.18,18.22,22.23,15.12,50.05,1022.48,2063.98,1183.34,1415.04,1610.71,599.96,617.84,53.35,0000 0000 0000 0000 000000
2016-02-15 02:49:42,0.60,11.07,0.00,14.18,18.22,22.24,15.15,49.88,1022.48,2063.98,1180.27,1412.59,1608.10,600.05,617.83,53.40,0000 0000 0000 0000 000000
2016-02-15 02:54:43,0.59,11.10,0.00,14.21,18.23,22.22,15.11,49.60,1022.48,2063.98,1177.37,1410.33,1605.51,599.87,617.71,53.45,0000 0000 0000 0000 000000
2016-02-15 02:59:44,0.49,11.13,0.63,14.23,18.24,22.18,15.16,49.93,1022.48,2063.98,1174.64,1408.29,1603.22,600.30,618.09,53.50,0000 0000 0000 0000 000000
2016-02-15 03:04:46,0.51,11.15,1.00,14.24,18.24,22.25,15.14,49.55,1022.48,2063.94,1172.14,1406.49,1601.15,599.95,617.55,53.55,0000 0000 0000 0000 000000
2016-02-15 03:09:47,0.34,11.17,1.00,14.24,18.25,22.20,15.20,49.65,1022.48,2063.88,1170.13,1404.96,1599.48,600.23,617.94,53.60,0000 0000 0000 0000 000000
2016-02-15 03:14:49,0.33,11.19,1.00,14.27,18.25,22.22,15.15,49.66,1022.48,2063.62,1168.29,1403.58,1598.14,600.23,618.04,53.65,0000 0000 0000 0000 000000
2016-02-15 03:19:50,0.30,11.21,1.00,14.28,18.26,22.25,15.07,49.64,1022.48,2063.47,1166.51,1402.27,1596.73,600.09,617.78,53.70,0000 0000 0000 0000 000000
2016-02-15 03:24:51,0.29,11.22,1.00,14.29,18.25,22.24,15.17,49.65,1022.48,2063.49,1164.95,1401.26,1595.61,600.08,617.72,53.75,0000 0000 0000 0000 000000
2016-02-15 03:29:52,0.29,11.23,0.33,14.31,18.25,22.24,15.06,49.60,1022.49,2063.50,1163.58,1400.26,1594.45,599.67,617.30,53.80,0000 0000 0000 0000 000000
2016-02-15 03:34:54,0.34,11.25,0.00,14.32,18.24,22.23,15.13,49.81,1022.49,2063.54,1161.76,1398.95,1593.02,600.12,617.72,53.85,0000 0000 0000 0000 000000
2016-02-15 03:39:55,0.27,11.27,0.00,14.33,18.24,22.24,15.08,49.43,1022.49,2063.55,1160.35,1397.88,1591.87,599.65,617.22,53.90,0000 0000 0000 0000 000000
2016-02-15 03:44:56,0.34,11.28,0.00,14.34,18.24,22.27,15.18,49.69,1022.50,2063.52,1158.72,1396.77,1590.66,600.30,617.79,53.95,0000 0000 0000 0000 000000
2016-02-15 03:49:57,0.50,11.30,0.00,14.37,18.24,22.23,15.07,49.93,1022.50,2063.47,1156.40,1395.12,1588.79,599.64,617.15,54.00,0000 0000 0000 0000 000000
2016-02-15 03:54:58,0.54,11.33,0.00,14.37,18.24,22.26,15.11,49.79,1022.49,2063.71,1153.76,1393.20,1586.64,599.85,617.33,54.05,0000 0000 0000 0000 000000
2016-02-15 04:00:00,0.39,11.35,0.00,14.38,18.24,22.26,15.10,49.81,1022.49,2063.62,1151.67,1391.67,1585.01,600.43,617.85,54.10,0000 0000 0000 0000 000000
2016-02-15 04:05:01,0.46,11.37,0.00,14.40,18.25,22.24,15.07,49.67,1022.49,2063.36,1149.34,1389.88,1582.98,599.89,617.30,54.16,0000 0000 0000 0000 000000
2016-02-15 04:10:02,0.76,11.41,0.00,14.43,18.26,22.27,15.15,49.81,1022.48,2063.41,1145.82,1387.30,1580.18,599.77,617.18,54.21,0000 0000 0000 0000 000000
2016-02-15 04:15:03,0.54,11.44,0.00,14.44,18.27,22.27,15.14,49.67,1022.48,2063.19,1142.67,1385.04,1577.57,599.86,617.14,54.26,0000 0000 0000 0000 000000
2016-02-15 04:20:04,0.92,11.48,0.00,14.47,18.27,22.27,15.04,50.26,1022.48,2063.10,1138.38,1382.02,1574.38,599.96,617.22,54.31,0000 0000 0000 0000 000000
2016-02-15 04:25:06,1.03,11.53,0.00,14.48,18.28,22.28,15.10,50.07,1022.48,2063.08,1133.26,1378.36,1570.37,600.15,617.50,54.36,0000 0000 0000 0000 000000
2016-02-15 04:30:07,0.81,11.58,0.73,14.52,18.29,22.32,15.01,49.72,1022.48,2063.09,1129.05,1375.28,1566.90,599.69,616.93,54.41,0000 0000 0000 0000 000000
2016-02-15 04:35:09,0.64,11.61,1.00,14.52,18.32,22.34,15.16,49.79,1022.49,2063.03,1125.71,1372.86,1564.31,600.23,617.38,54.46,0000 0000 0000 0000 000000
2016-02-15 04:40:10,0.59,11.64,1.00,14.52,18.32,22.34,15.15,50.11,1022.50,2063.04,1122.80,1370.81,1562.11,600.14,617.31,54.51,0000 0000 0000 0000 000000
2016-02-15 04:45:11,0.60,11.67,1.00,14.50,18.34,22.40,15.09,50.13,1022.51,2063.01,1119.84,1368.74,1559.76,599.95,617.06,54.56,0000 0000 0000 0000 000000
2016-02-15 04:50:13,0.68,11.71,1.00,14.53,18.35,22.38,15.17,50.34,1022.52,2063.01,1116.63,1366.35,1557.14,600.28,617.35,54.61,0000 0000 0000 0000 000000
2016-02-15 04:55:14,0.82,11.74,1.00,14.56,18.37,22.42,15.20,50.48,1022.53,2063.00,1112.82,1363.60,1554.08,599.80,616.93,54.66,0000 0000 0000 0000 000000
2016-02-15 05:00:15,0.62,11.78,1.00,14.55,18.38,22.40,15.12,50.52,1022.53,2063.00,1109.38,1361.24,1551.56,600.09,617.04,54.71,0000 0000 0000 0000 000000
2016-02-15 05:05:17,0.53,11.81,1.00,14.59,18.39,22.40,15.12,50.38,1022.62,2063.00,1107.05,1359.43,1549.53,599.95,616.96,54.76,0000 0000 0000 0000 000000
2016-02-15 05:10:18,0.73,11.84,1.00,14.59,18.41,22.38,15.21,50.58,1022.60,2063.00,1103.75,1356.95,1546.75,600.06,617.18,54.81,0000 0000 0000 0000 000000
2016-02-15 05:15:19,0.58,11.88,1.00,14.60,18.43,22.43,15.12,50.37,1022.68,2063.00,1100.87,1354.79,1544.31,600.12,617.14,54.86,0000 0000 0000 0000 000000
2016-02-15 05:20:21,0.49,11.90,1.00,14.59,18.45,22.41,15.11,50.36,1022.77,2062.98,1098.45,1353.00,1542.31,599.87,617.03,54.91,0000 0000 0000 0000 000000
2016-02-15 05:25:22,0.45,11.93,1.00,14.60,18.48,22.49,15.11,50.34,1022.79,2062.97,1096.25,1351.41,1540.56,599.96,617.02,54.96,0000 0000 0000 0000 000000
2016-02-15 05:30:23,0.46,11.95,1.00,14.60,18.50,22.53,15.17,50.08,1022.86,2062.91,1094.18,1349.78,1538.74,599.82,616.99,55.01,0000 0000 0000 0000 000000
2016-02-15 05:35:25,0.49,11.98,1.00,14.60,18.52,22.62,15.11,50.14,1022.96,2062.74,1091.77,1347.99,1536.76,599.64,616.84,55.07,0000 0000 0000 0000 000000
2016-02-15 05:40:26,0.44,12.00,1.00,14.62,18.54,22.57,15.13,50.11,1022.96,2062.52,1089.45,1346.26,1534.93,600.27,617.49,55.12,0000 0000 0000 0000 000000
2016-02-15 05:45:28,0.42,12.02,1.00,14.63,18.57,22.57,15.15,50.12,1022.96,2062.34,1087.32,1344.69,1533.27,599.92,617.26,55.17,0000 0000 0000 0000 000000
2016-02-15 05:50:29,0.33,12.04,1.00,14.62,18.57,22.66,15.02,50.19,1022.96,2062.15,1085.58,1343.36,1531.77,599.71,616.88,55.22,0000 0000 0000 0000 000000
2016-02-15 05:55:30,0.36,12.06,1.00,14.59,18.59,22.62,15.13,49.94,1022.96,2062.07,1083.79,1342.12,1530.33,600.01,617.26,55.27,0000 0000 0000 0000 000000
2016-02-15 06:00:32,0.37,12.08,0.20,14.56,18.59,22.62,15.12,50.10,1022.96,2062.02,1082.03,1340.85,1528.86,600.06,617.42,55.32,0000 0000 0000 0000 000000
2016-02-15 06:05:33,0.47,12.10,0.00,14.59,18.61,22.61,15.11,49.81,1022.96,2062.02,1080.17,1339.39,1527.17,599.74,617.00,55.37,0000 0000 0000 0000 000000
2016-02-15 06:10:34,0.62,12.13,0.00,14.59,18.62,22.77,15.17,49.85,1022.96,2062.01,1077.43,1337.28,1524.84,599.91,617.34,55.42,0000 0000 0000 0000 000000
2016-02-15 06:15:36,0.57,12.16,0.00,14.63,18.62,22.70,15.21,49.76,1022.96,2062.00,1074.67,1335.25,1522.55,600.53,617.84,55.47,0000 0000 0000 0000 000000
2016-02-15 06:20:37,0.57,12.19,0.00,14.64,18.62,22.63,15.16,49.86,1022.98,2062.00,1072.10,1333.30,1520.43,599.89,617.16,55.52,0000 0000 0000 0000 000000
2016-02-15 06:25:38,0.58,12.22,0.00,14.68,18.62,22.65,15.12,50.29,1022.98,2062.00,1069.47,1331.34,1518.26,599.75,616.78,55.57,0000 0000 0000 0000 000000
2016-02-15 06:30:40,0.54,12.24,0.83,14.70,18.62,22.72,15.12,49.72,1023.02,2062.00,1067.04,1329.52,1516.26,600.22,617.33,55.62,0000 0000 0000 0000 000000
2016-02-15 06:35:41,0.51,12.27,1.00,14.70,18.61,22.73,15.17,49.99,1023.24,2062.00,1064.68,1327.79,1514.37,600.28,617.54,55.67,0000 0000 0000 0000 000000
2016-02-15 06:40:42,0.46,12.30,1.00,14.71,18.59,22.67,15.14,50.09,1023.21,2062.00,1062.47,1326.18,1512.68,600.27,617.43,55.72,0000 0000 0000 0000 000000
2016-02-15 06:45:44,0.48,12.32,1.00,14.72,18.59,22.63,15.10,49.86,1023.11,2062.00,1060.40,1324.63,1510.95,599.76,616.82,55.77,0000 0000 0000 0000 000000
2016-02-15 06:50:45,0.47,12.34,1.00,14.72,18.59,22.62,15.22,49.91,1023.07,2062.00,1058.32,1323.07,1509.18,600.17,617.25,55.82,0000 0000 0000 0000 000000
2016-02-15 06:55:46,0.44,12.37,1.00,14.71,18.59,22.61,15.17,49.84,1023.32,2062.01,1056.22,1321.44,1507.38,600.38,617.71,55.87,0000 0000 0000 0000 000000
2016-02-15 07:00:47,0.53,12.39,0.13,14.70,18.57,22.62,15.20,50.33,1023.41,2062.01,1054.08,1319.91,1505.64,600.40,617.70,55.92,0000 0000 0000 0000 000000
2016-02-15 07:05:49,0.47,12.42,0.00,14.69,18.57,22.62,15.18,50.32,1023.44,2062.00,1051.77,1318.27,1503.91,600.09,617.51,55.98,0000 0000 0000 0000 000000
2016-02-15 07:10:50,0.48,12.44,0.00,14.70,18.57,22.58,15.16,49.88,1023.43,2062.00,1049.76,1316.72,1502.17,599.91,617.24,56.03,0000 0000 0000 0000 000000
2016-02-15 07:15:51,0.45,12.46,0.00,14.69,18.57,22.55,15.15,49.73,1023.40,2062.01,1047.72,1315.17,1500.37,600.20,617.54,56.08,0000 0000 0000 0000 000000
2016-02-15 07:20:52,0.48,12.49,0.00,14.68,18.55,22.54,15.13,49.67,1023.35,2062.03,1045.72,1313.65,1498.67,600.12,617.50,56.13,0000 0000 0000 0000 000000
2016-02-15 07:25:53,0.30,12.51,0.00,14.66,18.54,22.61,15.10,49.85,1023.31,2062.01,1044.28,1312.50,1497.33,599.85,617.16,56.18,0000 0000 0000 0000 000000
2016-02-15 07:30:54,0.22,12.52,0.00,14.65,18.54,22.62,15.09,49.58,1023.30,2062.01,1043.26,1311.74,1496.48,599.92,617.23,56.23,0000 0000 0000 0000 000000
2016-02-15 07:35:55,0.21,12.53,0.00,14.67,18.52,22.65,15.12,49.58,1023.42,2062.01,1042.20,1310.97,1495.68,600.11,617.60,56.28,0000 0000 0000 0000 000000
2016-02-15 07:40:56,0.24,12.54,0.00,14.67,18.52,22.59,15.11,49.61,1023.45,2062.01,1041.16,1310.10,1494.78,599.79,617.21,56.33,0000 0000 0000 0000 000000
2016-02-15 07:45:58,0.23,12.56,0.00,14.64,18.50,22.59,15.09,49.67,1023.45,2062.01,1040.22,1309.40,1494.02,600.02,617.48,56.38,0000 0000 0000 0000 000000
2016-02-15 07:50:59,0.20,12.56,0.00,14.63,18.49,22.63,15.14,49.64,1023.42,2062.02,1039.32,1308.83,1493.21,600.13,617.62,56.43,0000 0000 0000 0000 000000
2016-02-15 07:56:00,0.21,12.57,0.00,14.62,18.49,22.53,15.13,49.65,1023.39,2062.05,1038.61,1308.06,1492.58,600.16,617.67,56.48,0000 0000 0000 0000 000000
2016-02-15 08:01:01,0.06,12.58,0.00,14.61,18.47,22.55,15.22,49.57,1023.15,2062.09,1038.00,1307.90,1492.01,600.25,617.61,56.53,0000 0000 0000 0000 000000
2016-02-15 08:06:03,0.19,12.59,0.00,14.60,18.46,22.52,15.11,50.00,1023.15,2062.16,1037.53,1307.19,1491.80,600.05,617.41,56.58,0000 0000 0000 0000 000000
2016-02-15 08:11:04,0.08,12.60,0.00,14.58,18.44,22.49,15.18,49.66,1023.24,2062.25,1037.01,1307.00,1491.06,599.82,617.38,56.63,0000 0000 0000 0000 000000
2016-02-15 08:16:05,0.10,12.60,0.00,14.60,18.44,22.45,15.12,49.53,1023.31,2062.27,1036.66,1306.77,1490.96,600.16,617.73,56.68,0000 0000 0000 0000 000000
2016-02-15 08:21:06,0.19,12.61,0.00,14.58,18.43,22.53,15.16,49.32,1023.19,2062.48,1036.05,1306.09,1490.39,599.98,617.34,56.73,0000 0000 0000 0000 000000
2016-02-15 08:26:08,0.04,12.61,0.00,14.57,18.42,22.49,15.16,49.25,1023.02,2062.44,1035.74,1306.00,1490.00,599.87,617.30,56.78,0000 0000 0000 0000 000000
2016-02-15 08:31:09,0.22,12.62,0.00,14.54,18.40,22.55,15.15,49.91,1022.98,2062.58,1035.03,1305.36,1489.49,600.06,617.40,56.83,0000 0000 0000 0000 000000
2016-02-15 08:36:11,0.12,12.63,0.00,14.53,18.39,22.48,15.23,49.65,1022.97,2062.73,1034.52,1305.00,1489.00,600.23,617.66,56.88,0000 0000 0000 0000 000000
2016-02-15 08:41:12,0.18,12.63,0.00,14.52,18.38,22.48,15.11,49.58,1022.96,2062.88,1033.80,1304.62,1488.60,599.87,617.31,56.93,0000 0000 0000 0000 000000
2016-02-15 08:46:13,0.13,12.65,0.00,14.53,18.37,22.43,15.06,49.39,1022.97,2062.93,1033.03,1304.02,1488.01,599.76,616.98,56.98,0000 0000 0000 0000 000000
2016-02-15 08:51:15,0.14,12.65,0.00,14.50,18.36,22.37,15.27,49.66,1022.98,2062.97,1032.59,1303.79,1487.64,600.54,617.90,57.04,0000 0000 0000 0000 000000
2016-02-15 08:56:16,0.12,12.66,0.00,14.48,18.34,22.37,15.09,49.86,1022.98,2062.96,1031.99,1303.04,1487.01,599.58,617.07,57.09,0000 0000 0000 0000 000000
2016-02-15 09:01:17,0.18,12.67,0.00,14.48,18.34,22.38,15.15,49.56,1022.97,2062.97,1031.22,1302.78,1486.45,600.15,617.76,57.14,0000 0000 0000 0000 000000
2016-02-15 09:06:19,0.08,12.67,0.00,14.48,18.32,22.43,15.09,49.83,1022.97,2062.99,1030.96,1302.07,1486.01,599.32,616.73,57.19,0000 0000 0000 0000 000000
2016-02-15 09:11:20,0.11,12.68,0.00,14.47,18.31,22.36,15.20,49.87,1022.98,2062.99,1030.23,1302.00,1485.88,600.54,618.06,57.24,0000 0000 0000 0000 000000
2016-02-15 09:16:21,0.10,12.68,0.00,14.46,18.29,22.36,15.12,49.92,1023.00,2062.99,1029.99,1301.64,1485.16,600.00,617.59,57.29,0000 0000 0000 0000 000000
2016-02-15 09:21:23,0.08,12.69,0.00,14.43,18.29,22.34,15.10,49.44,1023.00,2062.99,1029.78,1301.04,1484.98,599.56,617.29,57.34,0000 0000 0000 0000 000000
2016-02-15 09:26:24,0.11,12.69,0.00,14.41,18.29,22.36,15.14,49.77,1023.02,2062.99,1029.06,1300.98,1484.50,600.57,618.36,57.39,0000 0000 0000 0000 000000
2016-02-15 09:31:25,0.12,12.70,0.00,14.42,18.28,22.35,15.11,49.42,1023.01,2062.99,1028.76,1300.53,1484.02,599.67,617.39,57.44,0000 0000 0000 0000 000000
2016-02-15 09:36:27,0.10,12.71,0.00,14.40,18.27,22.38,15.10,49.98,1022.99,2062.99,1028.06,1300.02,1483.91,599.90,617.70,57.49,0000 0000 0000 0000 000000
2016-02-15 09:41:28,0.06,12.71,0.00,14.41,18.27,22.39,15.06,49.62,1022.98,2063.00,1027.94,1299.97,1483.16,599.76,617.46,57.54,0000 0000 0000 0000 000000
2016-02-15 09:46:29,0.19,12.72,0.00,14.39,18.27,22.37,15.14,49.46,1023.00,2063.02,1027.13,1299.34,1482.99,600.07,617.74,57.59,0000 0000 0000 0000 000000
2016-02-15 09:51:30,0.05,12.72,0.00,14.38,18.26,22.37,15.15,50.08,1023.00,2063.03,1026.97,1299.00,1482.50,600.29,618.06,57.64,0000 0000 0000 0000 000000
2016-02-15 09:56:31,0.13,12.73,0.00,14.36,18.25,22.37,15.10,49.98,1023.02,2063.02,1026.21,1298.87,1482.01,599.73,617.68,57.69,0000 0000 0000 0000 000000
2016-02-15 10:01:33,0.09,12.74,0.00,14.37,18.25,22.32,15.10,49.96,1023.07,2063.02,1025.97,1298.13,1481.90,599.79,617.64,57.74,0000 0000 0000 0000 000000
2016-02-15 10:06:34,0.15,12.74,0.00,14.36,18.24,22.37,15.05,49.86,1023.04,2063.03,1025.34,1298.00,1481.20,599.52,617.41,57.79,0000 0000 0000 0000 000000
2016-02-15 10:11:35,0.02,12.74,0.00,14.36,18.24,22.34,15.13,50.38,1023.02,2063.02,1025.00,1297.92,1481.00,600.36,618.11,57.84,0000 0000 0000 0000 000000
2016-02-15 10:16:37,0.20,12.75,0.00,14.35,18.24,22.22,15.16,50.30,1023.02,2063.03,1024.38,1297.18,1480.77,600.15,618.07,57.89,0000 0000 0000 0000 000000
2016-02-15 10:21:38,0.06,12.76,0.00,14.35,18.24,22.27,15.09,50.76,1023.01,2063.05,1024.00,1297.00,1480.04,600.19,617.87,57.95,0000 0000 0000 0000 000000
2016-02-15 10:26:39,0.15,12.76,0.00,14.37,18.24,22.33,15.10,50.57,1023.03,2063.10,1023.46,1296.70,1479.93,599.94,617.90,58.00,0000 0000 0000 0000 000000
2016-02-15 10:31:40,0.12,12.77,0.00,14.37,18.24,22.30,15.14,50.33,1023.08,2063.11,1023.00,1296.04,1479.18,599.92,617.75,58.05,0000 0000 0000 0000 000000
2016-02-15 10:36:42,0.04,12.77,0.00,14.34,18.24,22.32,15.10,50.23,1023.02,2063.11,1022.80,1295.90,1478.90,599.75,617.61,58.10,0000 0000 0000 0000 000000
2016-02-15 10:41:43,0.20,12.78,0.00,14.34,18.24,22.31,15.15,49.92,1022.99,2063.06,1022.06,1295.14,1478.10,599.70,617.37,58.15,0000 0000 0000 0000 000000
2016-02-15 10:46:44,0.06,12.79,0.00,14.32,18.25,22.27,15.15,49.77,1022.98,2063.07,1021.78,1294.98,1477.90,600.04,617.90,58.20,0000 0000 0000 0000 000000
2016-02-15 10:51:46,0.19,12.80,0.00,14.32,18.24,22.38,15.09,50.07,1022.96,2063.03,1021.03,1294.33,1477.11,599.87,617.84,58.25,0000 0000 0000 0000 000000
2016-02-15 10:56:47,0.08,12.80,0.00,14.33,18.24,22.29,15.13,49.73,1022.96,2063.08,1020.64,1294.00,1476.98,600.00,617.91,58.30,0000 0000 0000 0000 000000
2016-02-15 11:01:48,0.12,12.81,0.00,14.32,18.24,22.33,15.14,49.78,1022.96,2063.08,1020.01,1293.86,1476.24,600.28,618.16,58.35,0000 0000 0000 0000 000000
2016-02-15 11:06:49,0.16,12.81,0.00,14.31,18.23,22.23,15.07,49.67,1022.95,2063.04,1019.55,1293.08,1476.00,599.40,617.29,58.40,0000 0000 0000 0000 000000
2016-02-15 11:11:51,0.07,12.82,0.00,14.30,18.22,22.24,15.17,50.17,1022.95,2063.04,1019.00,1292.99,1475.59,600.35,618.25,58.45,0000 0000 0000 0000 000000
2016-02-15 11:16:52,0.08,12.82,0.00,14.31,18.21,22.28,15.09,50.20,1022.94,2063.12,1018.79,1292.84,1475.04,599.56,617.52,58.50,0000 0000 0000 0000 000000
2016-02-15 11:21:53,0.16,12.83,0.00,14.29,18.20,22.28,15.17,50.14,1022.88,2063.15,1018.07,1292.15,1474.99,600.13,618.16,58.55,0000 0000 0000 0000 000000
2016-02-15 11:26:55,0.01,12.83,0.00,14.29,18.19,22.32,15.13,49.73,1022.81,2063.27,1018.00,1292.01,1474.92,600.26,618.15,58.60,0000 0000 0000 0000 000000
2016-02-15 11:31:56,0.07,12.84,0.00,14.28,18.19,22.27,15.11,49.98,1022.76,2063.20,1017.79,1291.99,1474.28,600.47,618.37,58.65,0000 0000 0000 0000 000000
2016-02-15 11:36:57,0.12,12.84,0.00,14.28,18.17,22.23,15.12,50.48,1022.73,2063.22,1017.08,1291.81,1474.01,599.94,617.67,58.70,0000 0000 0000 0000 000000
2016-02-15 11:41:59,0.14,12.85,0.00,14.28,18.17,22.19,15.10,50.44,1022.69,2063.68,1016.99,1291.26,1474.00,599.97,617.77,58.75,0000 0000 0000 0000 000000
2016-02-15 11:47:00,0.12,12.85,0.00,14.27,18.15,22.14,15.21,50.67,1022.71,2063.71,1016.49,1291.01,1473.73,600.16,618.00,58.80,0000 0000 0000 0000 000000
2016-02-15 11:52:01,0.09,12.86,0.00,14.27,18.14,22.11,15.10,50.73,1022.81,2063.87,1016.01,1290.97,1473.09,600.05,617.94,58.85,0000 0000 0000 0000 000000
2016-02-15 11:57:02,0.11,12.86,0.00,14.25,18.14,22.15,15.19,50.82,1022.90,2063.95,1015.82,1290.54,1473.00,599.99,617.94,58.90,0000 0000 0000 0000 000000
2016-02-15 12:02:04,0.13,12.87,0.00,14.26,18.13,22.23,15.15,50.75,1022.94,2063.96,1015.08,1290.03,1472.73,600.21,618.17,58.95,0000 0000 0000 0000 000000
2016-02-15 12:07:05,0.03,12.88,0.00,14.25,18.12,22.22,15.19,50.67,1022.95,2063.97,1015.00,1290.00,1472.06,600.32,618.29,59.01,0000 0000 0000 0000 000000
2016-02-15 12:12:06,0.04,12.88,0.00,14.24,18.13,22.18,15.21,50.47,1022.95,2063.97,1014.87,1289.82,1472.00,599.87,618.00,59.06,0000 0000 0000 0000 000000
2016-02-15 12:17:07,0.17,12.89,0.00,14.24,18.14,22.26,15.20,50.44,1022.83,2063.97,1014.11,1289.14,1471.91,600.00,617.95,59.11,0000 0000 0000 0000 000000
2016-02-15 12:22:09,0.04,12.89,0.00,14.24,18.14,22.20,15.19,50.69,1022.69,2063.98,1013.97,1289.00,1471.24,600.00,617.85,59.16,0000 0000 0000 0000 000000
2016-02-15 12:27:11,0.10,12.89,0.00,14.23,18.14,22.24,15.13,50.81,1022.59,2063.97,1013.41,1288.95,1471.01,600.02,617.85,59.21,0000 0000 0000 0000 000000
2016-02-15 12:32:12,0.11,12.90,0.00,14.22,18.14,22.20,15.22,50.62,1022.54,2063.98,1013.01,1288.26,1470.96,600.19,617.97,59.26,0000 0000 0000 0000 000000
2016-02-15 12:37:13,0.14,12.90,0.00,14.22,18.14,22.18,15.19,50.69,1022.50,2063.99,1012.60,1288.00,1470.24,600.20,617.83,59.31,0000 0000 0000 0000 000000
2016-02-15 12:42:14,0.10,12.91,0.00,14.21,18.14,22.20,15.02,50.76,1022.49,2063.98,1012.01,1287.66,1469.96,599.89,617.80,59.36,0000 0000 0000 0000 000000
2016-02-15 12:47:15,0.20,12.92,0.00,14.19,18.14,22.22,15.19,50.76,1022.48,2063.98,1011.30,1287.01,1469.18,600.10,618.01,59.41,0000 0000 0000 0000 000000
2016-02-15 12:52:16,0.14,12.92,0.00,14.19,18.14,22.20,15.17,50.63,1022.48,2063.98,1010.75,1286.57,1468.76,600.00,617.79,59.46,0000 0000 0000 0000 000000